Date,TemperatureHighF,TemperatureAvgF,TemperatureLowF,DewpointHighF,DewpointAvgF,DewpointLowF,HumidityHigh,HumidityAvg,HumidityLow,PressureMaxIn,PressureMinIn,WindSpeedMaxMPH,WindSpeedAvgMPH,GustSpeedMaxMPH,PrecipitationSumIn
2013-11-1,72.0,62.7,50.6,61.0,57.9,50.0,98,85,51,29.99,29.77,9,3,23,0.27
2013-11-2,63.9,49.2,39.2,51.0,40.9,34.0,99,78,36,30.11,29.88,14,1,27,0.01
2013-11-3,58.7,46.2,34.2,40.0,36.3,33.0,95,71,41,30.44,30.09,8,1,11,0.00
2013-11-4,57.9,41.3,28.7,38.0,32.6,28.0,98,76,39,30.58,30.44,3,0,8,0.00
2013-11-5,58.8,42.7,30.2,38.0,33.4,29.0,98,74,33,30.60,30.48,4,0,8,0.00
2013-11-6,65.7,52.8,42.6,54.0,48.6,39.0,98,86,64,30.50,30.24,3,0,6,0.08
2013-11-7,65.1,52.8,41.9,58.0,44.4,27.0,98,76,41,30.24,30.10,8,1,11,0.03
2013-11-8,56.5,42.9,29.2,28.0,22.9,8.0,89,52,15,30.39,30.23,4,1,11,0.00
2013-11-9,55.3,40.6,24.7,36.0,29.9,23.0,96,69,40,30.43,30.30,6,1,12,0.00
2013-11-10,68.2,47.8,32.8,40.0,33.9,30.0,96,65,26,30.36,30.24,2,0,6,0.00
2013-11-11,60.7,42.0,26.9,35.0,31.1,26.0,97,71,32,30.42,30.25,5,0,8,0.00
2013-11-12,59.2,38.2,25.1,39.0,28.8,14.0,96,71,42,30.51,30.18,7,1,12,0.00
2013-11-13,47.8,31.8,17.9,20.0,14.1,6.0,84,54,21,30.56,30.48,4,1,9,0.00
2013-11-14,56.8,34.2,17.7,28.0,20.2,16.0,94,65,24,30.52,30.37,5,1,10,0.00
2013-11-15,52.0,42.9,26.9,48.0,39.5,23.0,98,88,64,30.38,30.27,2,0,6,0.27
2013-11-16,64.6,53.2,47.5,56.0,51.4,47.0,99,94,69,30.34,30.25,5,0,10,0.04
2013-11-17,60.6,56.1,53.1,57.0,55.3,53.0,99,97,87,30.31,30.02,5,0,11,0.70
2013-11-18,68.1,56.2,45.7,59.0,45.8,31.0,99,72,36,30.12,29.98,6,1,13,0.05
2013-11-19,54.0,43.3,31.3,33.0,27.1,18.0,89,57,24,30.31,30.10,10,1,16,0.00
2013-11-20,49.5,38.9,26.9,34.0,29.4,26.0,95,71,42,30.49,30.31,5,0,9,0.00
2013-11-21,48.0,44.3,40.9,48.0,40.5,32.0,98,86,70,30.54,30.45,1,0,2,0.44
2013-11-22,64.9,53.9,47.9,59.0,53.0,47.0,99,96,81,30.47,30.24,9,1,13,0.08
2013-11-23,54.8,48.4,34.3,54.0,40.2,15.0,99,76,36,30.26,30.18,7,1,11,0.01
2013-11-24,40.7,31.1,22.0,24.0,10.0,2.0,74,44,22,30.52,30.26,8,2,13,0.00
2013-11-25,43.4,30.9,19.4,24.0,14.2,-1.0,88,55,16,30.53,30.34,6,1,9,0.00
2013-11-26,42.7,38.1,31.6,43.0,37.2,27.0,99,97,79,30.33,29.72,2,0,3,4.93
2013-11-27,43.3,33.9,22.2,43.0,27.1,15.0,99,77,53,30.22,29.66,8,2,13,0.08
2013-11-28,48.2,29.2,15.9,27.0,20.9,15.0,96,75,32,30.50,30.22,7,0,10,0.00
2013-11-29,53.2,33.8,20.2,32.0,24.9,19.0,96,75,32,30.63,30.49,3,0,6,0.00
2013-11-30,48.3,32.2,21.1,31.0,24.5,20.0,98,77,42,30.64,30.41,4,0,8,0.00